Location: Unspecified
(51.0000°N, 12.0000°E)
Time: 04:23:48
(UTC+01:00)

Tiangong 2 - Visible Passes

Search period start: 17 January 2018 00:00
Search period end: 27 January 2018 00:00
Orbit: 384 x 390 km, 42.8° (Epoch: 16 January)

Date Brightness Start Highest point End Pass type
(mag) Time Alt. Az. Time Alt. Az. Time Alt. Az.
18 Jan 4.4 06:38:55 10° SSE 06:39:09 10° SSE 06:39:24 10° SSE visible
19 Jan 3.8 07:14:36 10° SSW 07:16:42 16° S 07:18:49 10° SE visible
20 Jan 3.9 06:16:34 10° SSW 06:18:14 14° SSE 06:19:55 10° SE visible
21 Jan 4.2 05:20:02 10° SSE 05:20:02 10° SSE 05:20:18 10° SSE visible
21 Jan 3.5 06:53:32 10° SW 06:55:50 18° S 06:58:09 10° SE visible
22 Jan 3.4 05:56:27 15° S 05:57:20 16° S 05:59:27 10° SE visible
23 Jan 4.4 05:00:31 10° SE 05:00:31 10° SE 05:00:33 10° SE visible
23 Jan 3.3 06:32:47 11° SW 06:34:57 19° S 06:37:18 10° SE visible
24 Jan 3.4 05:36:48 18° SSE 05:36:48 18° SSE 05:38:43 10° SE visible
24 Jan 3.5 07:10:33 10° SW 07:12:32 16° SSW 07:14:33 10° SSE visible
25 Jan 3.2 06:13:03 16° SSW 06:14:01 18° S 06:16:16 10° SE visible
26 Jan 3.9 05:17:00 14° SE 05:17:00 14° SE 05:17:49 10° SE visible
26 Jan 3.6 06:50:09 10° SW 06:51:33 12° SSW 06:52:57 10° S visible
